SCP
1 1 1 1 0 0 0 0 0 0 0 1 1 1 1 0 0 0 0 0 0 0 0 0 0 0 0 0 0 0 0 0 0 0 0 0 0 0 0 0 0 0 0
1 1 1 1 0 0 0 0 0 0 0 0 1 0 0 0 0 0 0 0 0 0 0 0 0 0 0 0 0 0 0 0 0 0 0 0 0 0 0 0 0 0 0
1 1 1 1 0 0 0 0 0 0 0 0 0 0 0 0 0 0 0 0 0 0 0 0 0 0 0 0 0 0 0 0 0 0 0 0 0 0 0 0 0 0 0
1 1 1 1 1 0 0 0 0 0 0 0 0 0 0 0 0 0 0 0 0 0 0 0 0 0 0 0 0 0 0 0 0 0 0 0 0 0 0 0 0 0 0
1 1 1 1 1 1 0 0 0 0 0 0 0 0 0 0 0 0 0 0 0 0 0 0 0 0 0 0 0 0 0 0 0 0 0 0 0 0 0 0 0 0 0
1 1 1 1 1 1 0 0 0 0 0 0 0 0 0 0 0 0 0 0 0 0 0 0 0 0 0 0 0 0 0 0 0 0 0 0 0 0 0 0 0 0 0
2 2 2 1 1 1 1 0 0 0 0 0 0 0 0 0 0 0 0 0 0 0 0 0 0 0 0 0 0 0 0 0 0 0 0 0 0 0 0 0 0 0 0
2 2 2 2 1 1 1 1 0 0 0 0 0 0 0 0 0 0 0 0 0 0 0 0 0 0 0 0 0 0 0 1 0 0 0 0 0 0 0 0 0 0 0
2 2 2 2 2 1 1 1 1 0 0 0 0 0 0 0 0 0 0 0 0 0 0 0 0 0 0 0 0 0 0 1 1 0 0 0 0 0 0 0 0 0 0
1 1 2 2 2 1 1 1 1 1 0 0 0 0 0 0 0 1 0 0 0 0 0 0 0 0 0 0 0 0 0 1 0 0 0 0 0 0 0 0 0 0 0
1 1 2 3 2 1 1 1 1 1 1 1 0 0 0 0 1 1 1 0 0 0 0 0 0 0 0 0 0 1 1 0 0 0 0 0 0 0 0 0 0 0 0
2 2 2 3 2 1 1 1 1 1 1 1 1 1 0 0 1 1 1 0 0 0 0 0 1 1 0 0 0 1 1 0 0 0 0 0 0 0 0 0 0 0 0
2 2 2 3 3 2 1 1 1 1 1 1 1 1 1 1 1 1 1 1 1 1 1 1 1 1 1 0 0 1 1 0 0 0 0 0 0 0 0 0 0 0 0
3 3 3 4 4 3 2 1 1 1 1 1 2 1 1 1 1 1 1 1 1 1 1 1 1 1 1 0 0 0 0 0 0 0 0 1 1 1 1 0 0 0 0
5 4 4 6 5 3 2 1 1 1 1 2 2 3 3 2 1 1 1 1 1 1 1 1 1 1 1 1 0 0 0 0 0 0 1 1 1 1 1 1 1 1 1
6 5 6 7 6 5 3 1 1 1 2 2 4 5 4 3 2 1 1 1 1 1 1 1 1 1 1 1 0 0 0 0 0 1 1 1 1 1 1 1 1 1 1
6 6 7 7 7 6 4 2 1 1 2 3 5 6 5 3 2 1 1 1 1 1 1 1 1 1 1 1 1 0 0 0 1 1 1 1 1 1 1 1 1 1 1
7 7 7 7 7 6 4 3 2 2 3 4 6 6 5 3 2 2 1 1 1 1 1 1 1 1 1 1 1 1 1 1 1 1 1 1 1 1 1 1 1 1 1
8 8 7 7 8 8 5 4 2 2 4 5 5 5 5 4 2 2 1 1 1 1 1 1 1 1 1 1 1 1 1 1 1 1 1 1 1 1 1 1 1 1 1
9 9 8 7 9 9 7 5 3 3 3 4 4 4 4 3 2 2 1 1 1 1 1 1 1 1 1 1 1 1 1 1 1 1 2 2 1 1 2 2 2 1 1
8 8 7 7 8 9 7 5 4 3 2 2 3 3 3 3 2 2 2 1 1 1 1 1 1 1 1 1 1 1 1 1 1 2 2 2 2 2 2 2 2 2 2
7 7 7 6 7 7 6 5 3 3 2 2 2 3 3 2 2 2 2 2 2 2 2 2 2 1 1 2 2 1 1 1 1 1 2 2 2 2 2 2 2 2 2
7 7 7 7 7 6 5 4 4 3 3 2 2 2 3 3 3 2 2 2 2 3 3 3 2 2 2 2 2 2 1 1 1 1 2 2 2 2 2 2 2 2 2
7 7 8 9 8 7 6 5 4 3 3 2 2 3 3 4 3 3 3 3 3 3 3 3 3 3 2 2 2 2 2 2 2 2 2 2 2 2 2 2 1 2 2
8 8 8 8 8 7 6 6 5 4 3 3 3 4 4 5 4 4 4 5 5 4 3 3 3 3 3 3 2 2 2 3 3 2 2 2 3 3 2 2 2 2 2
8 8 7 7 7 7 7 7 6 5 4 4 4 4 5 5 5 5 6 6 6 5 4 3 4 4 3 3 2 2 2 3 3 2 2 2 3 3 2 2 2 2 2
Wind_Speed
14 14 14 14 14 14 14 14 14 14 14 14 14 14 15 15 15 15 15 15 15 15 15 15 15 15 15 15 16 16 16 16 16 17 17 17 15 14 14 15 16 13 16
17 15 14 14 14 14 14 14 13 14 13 13 13 13 14 14 14 14 14 14 15 15 15 15 15 15 15 15 14 14 14 14 15 16 17 15 14 13 12 14 16 11 15
18 15 15 14 14 14 13 13 13 13 13 12 13 13 13 13 14 14 14 14 14 15 15 15 14 14 14 14 13 13 12 12 12 13 13 10 11 14 15 17 16 15 15
18 15 14 15 14 14 13 12 12 12 12 12 12 12 12 13 13 13 14 14 14 15 14 14 14 14 13 13 12 10 9 9 8 8 6 9 10 14 15 15 15 14 14
17 16 15 15 14 13 13 12 12 12 12 12 12 12 12 13 13 13 14 14 14 14 14 14 14 13 12 11 9 7 6 4 3 5 8 10 8 12 14 14 14 13 13
18 16 15 15 14 13 12 12 11 11 11 11 11 11 11 12 12 13 13 13 13 14 14 13 13 12 11 9 7 5 3 1 1 6 9 9 8 11 13 13 13 13 12
18 16 15 15 14 13 12 11 10 10 11 11 11 11 11 11 12 12 13 13 13 13 13 12 12 11 10 8 5 3 3 4 2 7 9 9 8 11 12 12 12 12 12
18 17 15 14 14 12 11 11 10 10 10 10 10 10 11 11 11 12 12 12 12 12 12 11 11 10 8 6 3 3 5 6 6 11 10 9 10 11 12 12 11 11 11
19 17 14 13 12 12 11 10 10 10 10 10 10 10 10 11 11 11 11 11 11 11 10 10 10 9 7 4 1 3 5 6 2 7 11 8 10 11 12 11 11 10 10
16 16 14 14 12 11 10 10 10 10 10 10 10 10 10 10 11 11 11 10 10 10 9 9 8 7 5 3 1 3 6 7 3 9 8 9 11 12 11 11 10 10 10
12 12 13 14 12 11 11 11 10 10 9 9 8 9 9 7 8 8 10 10 9 9 8 7 7 6 5 4 3 4 5 2 7 7 7 11 12 11 10 10 10 9 9
10 10 10 11 9 8 9 9 7 7 7 5 5 7 4 3 4 8 10 9 8 8 7 7 7 6 6 4 5 5 3 1 6 7 7 12 11 11 10 9 9 9 9
9 8 11 10 6 6 6 6 4 4 5 5 5 5 4 4 5 6 5 6 5 7 5 6 6 5 4 2 3 3 2 1 4 7 8 11 11 11 10 10 9 9 8
9 8 10 10 6 4 4 4 4 4 4 4 5 5 4 2 3 4 3 4 4 3 3 4 3 3 3 2 1 1 1 1 4 6 7 11 11 11 10 10 9 9 8
8 8 8 9 6 4 2 0 3 3 4 5 4 3 4 3 3 3 2 2 3 3 3 2 2 2 1 0 1 1 1 2 4 6 6 11 11 10 10 10 9 9 9
9 8 8 8 7 5 3 1 0 2 3 3 4 4 4 3 3 3 2 1 1 2 2 2 2 2 2 1 1 0 1 1 3 6 7 8 11 11 11 11 10 10 10
9 8 8 8 8 6 5 4 3 3 4 3 4 5 4 3 4 3 2 2 1 1 2 1 1 1 2 2 2 2 1 2 2 4 7 6 7 10 12 11 11 11 11
10 8 8 8 10 7 4 3 2 2 3 3 4 4 4 3 4 2 2 2 2 2 2 2 1 1 2 1 2 2 2 2 4 4 5 6 7 7 11 14 12 12 12
9 9 7 5 9 8 6 4 3 1 1 2 3 3 4 4 4 3 2 2 2 2 2 3 2 2 1 1 2 3 2 3 3 5 5 6 6 7 7 12 14 14 14
9 8 8 6 6 7 5 4 2 2 2 1 2 3 4 4 4 3 3 3 2 2 2 1 1 1 1 2 3 2 2 4 4 4 5 5 5 7 8 10 9 11 15
10 9 9 8 7 5 4 5 4 3 2 2 3 4 4 4 4 4 3 3 3 2 3 2 2 3 3 2 1 2 3 4 3 3 3 3 5 6 6 8 8 7 8
10 10 9 9 8 7 5 4 3 3 3 3 2 3 4 4 4 5 4 3 3 2 3 3 2 2 3 3 2 1 1 2 2 4 3 3 4 4 5 7 7 7 5
12 11 9 9 8 8 6 4 3 2 2 2 3 3 4 5 4 3 4 4 3 3 3 4 3 4 3 3 3 2 2 2 2 2 3 3 2 2 2 2 4 5 6
11 10 8 8 7 7 6 6 6 4 4 4 3 3 4 4 4 4 4 4 3 3 3 4 4 3 3 3 2 3 3 2 1 2 2 1 2 3 3 3 4 5 6
10 10 9 8 7 6 6 5 4 4 3 2 2 3 3 3 4 4 4 4 4 3 3 3 2 3 3 4 3 2 3 3 3 3 3 2 2 2 3 3 3 3 4
10 9 9 8 7 7 6 5 5 4 3 3 2 2 3 2 3 4 4 3 4 3 4 3 3 4 3 3 3 2 2 2 3 3 3 3 3 2 2 2 2 2 3
Wind_Direction
106 106 105 102 100 99 97 95 94 92 90 88 87 87 88 89 89 90 91 92 91 91 90 89 88 87 87 87 87 89 92 94 97 99 99 99 99 101 105 108 102 100 105
110 110 107 104 102 100 99 97 97 95 93 91 89 89 90 91 91 92 92 93 92 92 92 92 92 91 91 92 93 95 98 101 105 107 105 99 97 96 96 97 97 105 107
111 114 111 105 104 102 101 99 98 98 96 93 92 91 92 94 95 95 95 94 94 94 94 94 95 94 93 94 95 99 104 109 115 120 116 102 96 92 94 96 102 106 106
118 118 111 110 107 104 103 101 100 100 98 96 94 92 92 95 96 97 97 96 96 96 96 96 97 96 95 97 99 103 108 114 126 135 115 104 100 99 100 103 105 106 107
108 108 113 113 110 107 104 103 101 101 99 98 97 94 94 95 96 98 98 98 97 98 98 97 97 97 98 100 101 102 104 113 135 112 92 90 93 105 105 107 108 108 108
118 116 116 116 113 111 108 105 104 104 104 102 100 98 97 97 97 99 100 100 99 100 99 98 99 99 99 100 102 97 80 52 72 105 104 104 103 108 109 109 110 110 109
118 119 121 121 118 115 112 110 108 107 107 107 105 103 102 101 101 103 103 103 102 102 101 101 101 101 101 99 95 72 10 337 128 102 99 99 107 113 112 111 112 111 112
122 120 123 124 123 120 117 114 111 111 111 111 110 109 108 108 106 107 107 106 106 105 105 104 104 104 103 98 78 13 341 337 91 104 102 102 114 114 114 113 113 113 115
122 127 135 134 129 126 122 120 118 118 117 116 117 118 118 117 115 113 110 110 111 112 112 110 111 112 110 104 63 342 331 339 64 113 111 112 119 119 120 121 119 117 119
129 135 141 142 141 144 134 130 128 127 126 125 128 130 129 127 127 126 121 116 118 120 121 122 124 127 131 139 210 305 317 316 105 102 105 120 127 126 126 126 126 124 124
126 137 145 141 152 153 144 140 144 139 139 141 145 148 153 154 144 145 121 127 130 133 136 140 146 152 162 182 223 267 293 265 98 94 101 126 133 133 133 133 133 132 131
135 142 135 136 145 150 138 144 158 158 153 171 158 165 181 167 133 124 131 139 145 150 157 168 175 185 201 189 205 226 255 223 109 106 117 134 136 138 140 142 142 142 141
146 145 134 125 139 140 128 158 151 149 151 171 165 165 166 149 134 131 149 152 165 175 183 174 194 214 206 198 200 201 217 125 101 109 129 140 143 145 148 150 150 151 150
156 151 136 131 137 117 125 138 148 158 162 159 161 174 152 144 143 146 159 171 176 183 190 186 208 203 186 183 193 168 115 92 103 115 140 149 150 154 157 159 160 162 162
154 147 126 129 124 116 98 226 166 150 147 147 158 163 148 156 152 142 149 175 184 172 183 202 188 153 125 177 229 145 102 77 115 125 139 159 161 164 167 171 173 175 175
160 150 138 138 136 140 153 225 346 135 123 148 163 156 161 150 139 137 151 198 210 172 166 195 166 155 178 210 234 239 131 127 125 137 147 165 172 174 177 180 184 187 188
160 150 145 150 148 160 176 196 194 191 167 163 146 146 162 160 144 164 169 201 214 166 151 188 206 185 196 194 200 216 196 173 162 157 157 166 176 187 189 190 192 194 196
159 152 162 170 155 164 185 204 225 209 154 149 146 150 164 159 155 176 189 202 194 197 179 201 225 207 220 207 206 211 196 183 184 187 184 178 176 182 194 198 198 200 203
155 155 165 169 156 168 182 193 231 218 153 151 151 152 164 167 170 194 212 189 197 212 207 218 187 209 230 231 239 216 213 201 199 205 198 195 185 177 180 194 201 203 207
156 158 163 169 161 165 175 183 222 224 195 194 164 157 158 174 183 203 217 193 214 216 227 224 177 217 226 234 261 264 250 224 207 208 204 201 195 194 187 180 192 208 213
162 164 166 175 170 172 180 184 195 204 203 204 193 167 173 190 190 200 233 184 212 220 219 213 209 219 226 225 237 272 276 256 218 210 218 214 204 204 192 174 184 190 201
166 169 171 177 176 184 187 187 193 189 194 205 211 168 182 199 204 202 209 215 207 216 225 235 236 231 230 212 203 205 279 288 259 227 214 215 221 208 200 194 191 185 189
172 177 177 176 178 187 185 181 199 187 214 209 192 184 198 206 207 229 203 217 215 213 211 217 224 226 236 235 208 189 210 241 275 264 230 226 218 203 209 185 189 187 193
174 174 170 170 176 181 184 188 197 198 204 211 196 188 194 206 209 211 211 215 226 236 220 218 212 216 226 244 239 219 218 207 222 288 276 225 211 209 206 216 211 197 191
171 169 169 165 174 177 186 193 199 213 216 215 200 196 195 203 212 219 211 210 218 233 237 231 221 217 224 232 238 231 225 225 219 224 264 273 250 222 202 208 218 198 194
168 167 166 164 173 177 184 195 199 214 231 237 217 206 202 207 215 216 220 211 220 226 235 232 227 226 233 247 253 254 244 226 219 215 234 248 245 239 228 217 206 199 202